User: anonymous   Login
Location: Champseau
(45.8333°N, 1.7667°E)
Time: 04:25:05
(UTC+00:00)
Language:

Cosmos 1408 Rocket - Orbit

View from above orbital plane
View from above orbital plane
View from above satellite
View from above satellite

Ground track
Ground track

The orbit data is extracted from the following two-line orbital elements,

1 13553U 82092B   21169.51553355  .00000083  00000-0  70708-5 0  9997
2 13553  82.5686 311.4829 0019888 250.6106 178.4985 14.84277759 72865
Epoch (UTC): 18 June 2021 12:22:22
Eccentricity: 0.0019888
inclination: 82.5686°
perigee height: 602 km
apogee height: 630 km
right ascension of ascending node: 311.4829°
argument of perigee: 250.6106°
revolutions per day: 14.84277759
mean anomaly at epoch: 178.4985°
orbit number at epoch: 7286

The dashed part of the orbit path shows where the satellite is in the earth's shadow,  

DLR